Regional Weather Roundup
Issued by NWS

Home | Current Version | Previous Version | Text Only | Print | Product List | Glossary On
Versions: 1 2 3 4 5 6 7 8 9 10 11 12 13 14 15 16 17 18 19 20 21 22 23 24 25 26 27 28 29 30 31 32 33 34 35 36 37 38 39 40 41 42 43 44 45 46 47 48 49 50
000
ASUS43 KOAX 011610
RWRNE

WEATHER ROUNDUP FOR NEBRASKA
NATIONAL WEATHER SERVICE OMAHA NE
1100 AM CDT WED OCT 01 2014

NOTES: SATELLITE DATA IS BEING USED TO AUGMENT CLOUD COVER ABOVE
       12000 FEET.
       "FAIR" INDICATES FEW OR NO CLOUDS BELOW 12,000 FEET WITH NO
       SIGNIFICANT WEATHER AND/OR OBSTRUCTIONS TO VISIBILITY.

  * THESE STATIONS DO NOT REPORT WEATHER SUCH AS RAIN...SNOW OR FOG.

NEZ001>004-019>022-054>056-011700-
NEBRASKA PANHANDLE

CITY           SKY/WX    TMP DP  RH WIND       PRES   REMARKS
SCOTTSBLUFF    PTSUNNY   55  47  74 NW6       29.90R
ALLIANCE       MOSUNNY   58  47  66 N10       29.87R
CHADRON        CLOUDY    57  48  72 W13       29.88R
KIMBALL        PTSUNNY   56  42  58 N8        29.89F
SIDNEY         MOSUNNY   62  44  51 N8        29.90R
$$

NEZ057>060-069>072-079>082-011700-
SOUTHWEST NEBRASKA

CITY           SKY/WX    TMP DP  RH WIND       PRES   REMARKS
NORTH PLATTE   SUNNY     67  47  48 N9        29.82S
IMPERIAL       MOSUNNY   61  47  59 N9        29.84S
LEXINGTON      MOSUNNY   61  59  94 W7        29.80S
MCCOOK         MOSUNNY   65  50  58 CALM      29.82R
OGALLALA       SUNNY     64  49  57 NW5       29.85R
$$

NEZ005>010-023>029-035>040-094-011700-
NORTH CENTRAL NEBRASKA

CITY           SKY/WX    TMP DP  RH WIND       PRES   REMARKS
VALENTINE      SUNNY     65  48  54 N13       29.82S
AINSWORTH      SUNNY     64  48  56 NW13      29.82S
BROKEN BOW     SUNNY     70  52  52 N10       29.79R
O`NEILL        SUNNY     68  53  57 N14       29.78S
ORD            MOSUNNY   70  51  51 N5        29.77R
THEDFORD       SUNNY     65  49  56 N9        29.83S
$$

NEZ041-046>049-061>064-073>077-083>087-011700-
SOUTH CENTRAL NEBRASKA

CITY           SKY/WX    TMP DP  RH WIND       PRES   REMARKS
GRAND ISLAND   MOSUNNY   66  61  84 SE6       29.78R
AURORA         MOSUNNY   69  64  82 S6        29.77S
HASTINGS       MOSUNNY   67  59  75 SE5       29.78R
HEBRON         CLOUDY    67  62  85 NE5       29.77R
HOLDREGE       SUNNY     69  55  62 CALM      29.79S
KEARNEY *      SUNNY     68  54  60 CALM      29.79R
YORK           MOSUNNY   68  63  83 SE5       29.77R
$$

NEZ011>018-030>034-042>045-011700-
NORTHEAST NEBRASKA

CITY           SKY/WX    TMP DP  RH WIND       PRES   REMARKS
NORFOLK        SUNNY     69  59  70 SW6       29.75R
ALBION         SUNNY     68  60  75 CALM      29.77R
BLAIR          MOSUNNY   69  62  78 S3        29.77R
COLUMBUS *     SUNNY     66  61  82 CALM      29.77R
FREMONT        MOSUNNY   67  62  83 S3        29.77S
TEKAMAH        MOSUNNY   69  61  75 S7        29.75F
WAYNE          SUNNY     70  61  73 S7        29.75R
$$

NEZ050>053-065>068-078-088>093-011700-
SOUTHEAST NEBRASKA

CITY           SKY/WX    TMP DP  RH WIND       PRES   REMARKS
LINCOLN        CLOUDY    66  61  84 N5        29.77S
OMAHA EPPLEY   PTSUNNY   68  62  81 SE6       29.76S
BEATRICE       CLOUDY    67  65  91 N9        29.76R
FALLS CITY     CLOUDY    68  65  90 SE7       29.76R
NEBRASKA CITY  CLOUDY    66  66 100 S3        29.76R
PLATTSMOUTH      N/A     64  62  91 CALM      29.76S
$$

NEZ044-045-051>053-067-011700-
OMAHA AREA

CITY           SKY/WX    TMP DP  RH WIND       PRES   REMARKS
OMAHA EPPLEY   PTSUNNY   68  62  81 SE6       29.76S
BLAIR          MOSUNNY   69  62  78 S3        29.77R
FREMONT        MOSUNNY   67  62  83 S3        29.77S
MILLARD        CLOUDY    67  62  84 SE6       29.76R
OFFUTT AFB     PTSUNNY   68  68 100 SE6       29.75F
PLATTSMOUTH      N/A     64  62  91 CALM      29.76S
WAHOO          CLOUDY    66  60  79 CALM      29.77S
$$


USA.gov is the U.S. government's official web portal to all federal, state and local government web resources and services.